Location: Plymouth Village
(34.0436°N, 117.1717°W)
Time: 03:04:24
(UTC+00:00)

Cosmos 1850 Rocket - Pass Details

Date: 10 September 2024
Orbit: 751 x 783 km, 74.0° (Epoch: 06 October)

Event Time Altitude Azimuth Distance (km) Brightness Sun altitude
Rises 12:39:54 0° 200° (SSW) 3,208 6.9 -10.8°
Reaches altitude 10° 12:42:15 10° 202° (SSW) 2,291 6.1 -10.4°
Maximum altitude 12:47:27 75° 287° (WNW) 799 4.0 -9.3°
Drops below altitude 10° 12:52:44 10° 13° (NNE) 2,327 6.8 -8.2°
Sets 12:55:08 0° 15° (NNE) 3,262 7.6 -7.8°
